TimeCST,TemperatureF,Dew PointF,Humidity,Sea Level PressureIn,VisibilityMPH,Wind Direction,Wind SpeedMPH,Gust SpeedMPH,PrecipitationIn,Events,Conditions,WindDirDegrees,DateUTC
12:15 AM,24.8,17.6,74,30.35,5.0,Calm,Calm,-,N/A,,Haze,0,2013-02-02 06:15:00
12:35 AM,24.8,19.4,80,30.36,4.0,Calm,Calm,-,N/A,,Haze,0,2013-02-02 06:35:00
12:55 AM,24.8,19.4,80,30.36,4.0,Calm,Calm,-,N/A,,Haze,0,2013-02-02 06:55:00
1:15 AM,23.0,17.6,80,30.35,4.0,Calm,Calm,-,N/A,,Haze,0,2013-02-02 07:15:00
1:35 AM,23.0,19.4,86,30.35,4.0,Calm,Calm,-,N/A,,Clear,0,2013-02-02 07:35:00
2:15 AM,23.0,19.4,86,30.34,4.0,Calm,Calm,-,N/A,,Clear,0,2013-02-02 08:15:00
2:55 AM,23.0,19.4,86,30.34,4.0,Calm,Calm,-,N/A,,Clear,0,2013-02-02 08:55:00
3:15 AM,23.0,19.4,86,30.33,4.0,Calm,Calm,-,N/A,,Clear,0,2013-02-02 09:15:00
3:35 AM,23.0,19.4,86,30.33,4.0,Calm,Calm,-,N/A,,Clear,0,2013-02-02 09:35:00
3:55 AM,23.0,19.4,86,30.33,4.0,Calm,Calm,-,N/A,,Clear,0,2013-02-02 09:55:00
4:15 AM,23.0,19.4,86,30.33,4.0,Calm,Calm,-,N/A,,Clear,0,2013-02-02 10:15:00
4:35 AM,23.0,17.6,80,30.33,4.0,Calm,Calm,-,N/A,,Partly Cloudy,0,2013-02-02 10:35:00
4:55 AM,23.0,19.4,86,30.32,4.0,Calm,Calm,-,N/A,,Scattered Clouds,0,2013-02-02 10:55:00
5:15 AM,23.0,19.4,86,30.32,4.0,Calm,Calm,-,N/A,,Scattered Clouds,0,2013-02-02 11:15:00
5:55 AM,23.0,19.4,86,30.32,4.0,Calm,Calm,-,N/A,,Mostly Cloudy,0,2013-02-02 11:55:00
6:35 AM,21.2,19.4,93,30.30,3.0,Calm,Calm,-,N/A,,Partly Cloudy,0,2013-02-02 12:35:00
6:55 AM,23.0,17.6,80,30.30,2.5,Calm,Calm,-,N/A,,Partly Cloudy,0,2013-02-02 12:55:00
7:15 AM,23.0,19.4,86,30.31,2.5,Calm,Calm,-,N/A,,Scattered Clouds,0,2013-02-02 13:15:00
7:35 AM,24.8,19.4,80,30.31,3.0,Calm,Calm,-,N/A,,Haze,0,2013-02-02 13:35:00
7:55 AM,26.6,19.4,74,30.31,3.0,Calm,Calm,-,N/A,,Haze,0,2013-02-02 13:55:00
8:15 AM,26.6,19.4,74,30.32,3.0,Calm,Calm,-,N/A,,Haze,0,2013-02-02 14:15:00
8:35 AM,28.4,19.4,69,30.36,3.0,North,10.4,-,N/A,,Haze,10,2013-02-02 14:35:00
8:55 AM,28.4,19.4,69,30.38,3.0,Calm,Calm,-,N/A,Rain,Freezing Rain,0,2013-02-02 14:55:00
9:15 AM,28.4,21.2,74,30.35,2.0,ESE,9.2,-,N/A,,Haze,120,2013-02-02 15:15:00
9:35 AM,28.4,23.0,80,30.34,1.5,ESE,5.8,-,N/A,Rain,Freezing Rain,110,2013-02-02 15:35:00
9:55 AM,28.4,23.0,80,30.31,1.2,Calm,Calm,-,N/A,Rain,Freezing Rain,0,2013-02-02 15:55:00
10:15 AM,30.2,23.0,75,30.29,1.8,SSE,5.8,-,N/A,Rain,Freezing Rain,150,2013-02-02 16:15:00
10:35 AM,32.0,23.0,69,30.27,2.5,WNW,3.5,-,N/A,,Haze,300,2013-02-02 16:35:00
10:55 AM,32.0,24.8,75,30.26,2.5,Calm,Calm,-,N/A,,Haze,0,2013-02-02 16:55:00
11:15 AM,32.0,24.8,75,30.25,3.0,Calm,Calm,-,N/A,,Haze,0,2013-02-02 17:15:00
11:35 AM,32.0,24.8,75,30.24,3.0,Calm,Calm,-,N/A,,Haze,0,2013-02-02 17:35:00
11:55 AM,32.0,26.6,80,30.22,2.5,North,3.5,-,N/A,,Haze,360,2013-02-02 17:55:00
12:15 PM,32.0,26.6,80,30.21,2.0,North,4.6,-,N/A,Rain,Light Rain,360,2013-02-02 18:15:00
12:35 PM,32.0,26.6,80,30.20,3.0,NNE,3.5,-,N/A,,Haze,20,2013-02-02 18:35:00
12:55 PM,32.0,28.4,87,30.18,2.5,Calm,Calm,-,N/A,Rain,Light Rain,0,2013-02-02 18:55:00
1:15 PM,33.8,28.4,81,30.17,3.0,Calm,Calm,-,N/A,,Haze,0,2013-02-02 19:15:00
1:35 PM,33.8,28.4,81,30.16,3.0,Calm,Calm,-,N/A,,Haze,0,2013-02-02 19:35:00
1:55 PM,35.6,28.4,75,30.16,3.0,Calm,Calm,-,N/A,,Haze,0,2013-02-02 19:55:00
2:15 PM,35.6,28.4,75,30.15,3.0,Calm,Calm,-,N/A,,Haze,0,2013-02-02 20:15:00
2:35 PM,35.6,28.4,75,30.15,2.0,Calm,Calm,-,N/A,Rain,Light Rain,0,2013-02-02 20:35:00
2:55 PM,35.6,30.2,81,30.16,2.0,Calm,Calm,-,N/A,Rain,Light Rain,0,2013-02-02 20:55:00
3:15 PM,35.6,32.0,87,30.15,1.2,NNE,3.5,-,N/A,Snow,Light Snow,30,2013-02-02 21:15:00
3:35 PM,33.8,32.0,93,30.16,2.0,Calm,Calm,-,N/A,Rain,Light Rain,0,2013-02-02 21:35:00
3:55 PM,33.8,32.0,93,30.16,1.8,Calm,Calm,-,N/A,Rain,Light Rain,0,2013-02-02 21:55:00
4:15 PM,35.6,32.0,87,30.15,2.0,South,3.5,-,N/A,,Overcast,190,2013-02-02 22:15:00
4:35 PM,35.6,32.0,87,30.13,2.0,SW,4.6,-,N/A,,Overcast,230,2013-02-02 22:35:00
4:55 PM,37.4,35.6,93,30.14,2.0,WSW,4.6,-,N/A,,Overcast,240,2013-02-02 22:55:00
5:15 PM,37.4,35.6,93,30.14,2.5,West,3.5,-,N/A,,Overcast,260,2013-02-02 23:15:00
5:35 PM,37.4,35.6,93,30.13,3.0,WSW,3.5,-,N/A,,Overcast,240,2013-02-02 23:35:00
5:55 PM,35.6,33.8,93,30.14,3.0,Calm,Calm,-,N/A,,Overcast,0,2013-02-02 23:55:00
6:35 PM,35.6,35.6,100,30.14,2.5,Calm,Calm,-,N/A,,Overcast,0,2013-02-03 00:35:00
6:55 PM,37.4,35.6,93,30.15,2.5,Calm,Calm,-,N/A,,Overcast,0,2013-02-03 00:55:00
7:15 PM,37.4,35.6,93,30.15,3.0,South,3.5,-,N/A,,Overcast,190,2013-02-03 01:15:00
7:35 PM,37.4,35.6,93,30.16,3.0,SSW,3.5,-,N/A,,Scattered Clouds,200,2013-02-03 01:35:00
7:55 PM,35.6,33.8,93,30.16,2.5,Calm,Calm,-,N/A,,Clear,0,2013-02-03 01:55:00
8:15 PM,32.0,32.0,100,30.17,1.5,Calm,Calm,-,N/A,,Clear,0,2013-02-03 02:15:00
8:35 PM,32.0,32.0,100,30.18,1.2,Calm,Calm,-,N/A,,Clear,0,2013-02-03 02:35:00
8:55 PM,32.0,32.0,100,30.17,2.0,South,3.5,-,N/A,,Clear,180,2013-02-03 02:55:00
9:15 PM,32.0,32.0,100,30.18,1.8,Calm,Calm,-,N/A,,Clear,0,2013-02-03 03:15:00
9:35 PM,35.6,33.8,93,30.17,2.5,SSW,4.6,-,N/A,,Clear,210,2013-02-03 03:35:00
9:55 PM,32.0,32.0,100,30.16,1.8,SSW,5.8,-,N/A,,Clear,200,2013-02-03 03:55:00
10:15 PM,33.8,32.0,93,30.17,1.8,SSW,3.5,-,N/A,,Clear,210,2013-02-03 04:15:00
10:35 PM,33.8,32.0,93,30.17,1.8,SSW,3.5,-,N/A,,Clear,210,2013-02-03 04:35:00
10:55 PM,32.0,32.0,100,30.17,1.5,Calm,Calm,-,N/A,,Clear,0,2013-02-03 04:55:00
11:15 PM,32.0,32.0,100,30.17,1.5,Calm,Calm,-,N/A,,Mostly Cloudy,0,2013-02-03 05:15:00
11:35 PM,32.0,32.0,100,30.16,1.2,Calm,Calm,-,N/A,,Mostly Cloudy,0,2013-02-03 05:35:00
11:55 PM,32.0,32.0,100,30.16,1.2,Calm,Calm,-,N/A,,Mostly Cloudy,0,2013-02-03 05:55:00